Theta_e
316 315 319 321 322 321 326 332 332 333 331 321 317 319 317 320 324 319 320 320 321 319 317 322 327 325 325 331 332 334 333 336 339 329 332 340 337 336 339 339 338 335 336 337 337 339 339 340 340 339 339 338 338 337 336 335 332 328 326 326 324 323 323 321 315 317 326 330 331 332 331 331 331 331 331 331 332 331 333 334 333 329 327 329 327 327 328 329 329 330 330 330 329 328 329 330 331
317 317 322 324 322 322 329 338 333 328 328 318 315 321 316 321 324 321 323 321 321 319 319 326 330 330 328 330 333 335 335 336 335 333 337 337 337 338 339 339 337 335 336 336 336 338 339 339 339 339 338 337 337 337 337 336 333 328 325 325 324 323 322 320 318 319 325 329 330 331 331 331 331 330 331 332 332 332 333 333 332 329 329 328 327 327 328 328 329 330 330 330 328 325 326 329 330
317 319 324 325 324 326 333 337 330 326 325 317 315 318 319 324 324 323 323 320 321 320 322 326 327 325 328 336 336 333 333 337 339 338 339 338 339 340 340 339 336 335 336 336 336 337 337 338 339 339 338 337 337 337 337 336 333 328 325 326 325 324 322 318 317 320 327 330 331 331 331 331 330 330 331 330 330 330 331 332 331 330 329 328 327 327 328 328 329 329 330 329 327 325 326 328 329
318 322 323 325 332 336 337 334 333 329 320 318 316 316 323 325 324 322 320 321 320 322 323 324 323 319 332 343 335 337 338 337 339 340 340 339 340 341 341 338 335 336 335 336 336 336 336 337 338 338 338 337 337 337 336 336 334 329 325 326 325 323 322 319 314 317 325 329 331 332 332 331 330 331 332 330 330 331 330 332 332 330 327 327 328 327 328 329 329 329 329 329 329 327 327 328 327
321 323 322 324 334 337 332 327 334 331 317 321 319 318 325 322 323 322 319 321 319 322 323 323 322 318 330 335 331 339 338 338 339 338 340 340 341 341 341 338 335 335 335 336 336 336 336 336 338 338 338 337 337 336 336 335 334 330 327 326 326 324 322 320 316 315 318 323 329 332 332 331 330 331 330 328 330 332 332 333 332 330 326 325 328 328 328 329 329 329 329 330 330 330 329 328 326
321 323 325 324 325 328 329 320 321 324 320 325 323 321 324 320 322 322 319 319 318 321 322 321 321 324 333 330 328 335 335 339 340 338 340 340 341 341 340 338 336 335 335 335 336 336 336 336 337 337 338 337 337 336 335 335 334 333 330 328 326 325 323 321 317 315 315 318 325 330 331 330 330 330 328 328 330 331 333 333 332 330 325 324 328 328 328 329 329 328 328 329 329 330 330 328 327
321 324 328 327 326 326 330 322 317 322 320 322 326 323 321 320 320 320 319 319 319 319 319 321 323 328 331 327 328 333 335 336 338 339 341 341 341 341 340 338 335 335 335 336 337 336 336 336 336 337 337 337 336 336 336 335 334 334 332 329 327 325 324 322 318 316 315 315 319 325 330 331 329 327 326 328 330 331 332 332 330 327 321 321 328 328 327 329 327 326 326 326 327 328 329 329 328
322 324 330 331 331 330 328 322 320 324 319 318 323 320 320 320 319 320 320 321 320 318 319 319 325 326 324 330 334 334 336 336 338 340 340 341 341 341 340 337 336 336 335 336 337 337 337 337 337 337 337 336 336 336 336 335 335 335 333 331 328 325 324 323 320 317 315 314 315 319 324 329 330 327 327 328 330 331 332 331 330 328 319 317 326 328 327 328 326 325 325 325 325 326 328 329 329
321 322 329 329 331 333 325 317 317 320 319 319 319 319 321 318 319 320 320 320 318 319 319 318 324 323 325 338 338 333 336 337 338 340 340 341 341 341 340 339 338 338 337 336 338 338 337 337 337 337 337 336 335 336 335 335 334 335 334 332 329 326 325 324 323 320 318 317 316 316 318 323 328 329 329 329 330 330 331 331 330 329 321 315 324 327 327 327 325 324 324 325 325 325 327 328 327
325 324 327 331 335 330 318 316 318 318 318 319 318 320 320 317 319 320 319 318 317 320 318 319 324 324 330 340 336 333 336 337 338 339 340 341 341 341 341 341 340 341 339 336 338 337 338 338 337 337 337 335 335 335 335 334 334 334 334 333 330 327 326 326 325 324 322 321 318 317 316 318 323 326 328 328 328 328 330 330 329 328 321 316 324 326 326 326 324 324 323 323 324 324 326 326 326
332 331 331 333 332 324 318 318 317 317 317 317 317 318 317 317 319 318 320 317 318 321 316 319 325 327 330 332 333 333 334 337 338 339 340 341 341 341 341 341 340 341 340 336 336 337 338 338 337 337 336 336 335 335 334 333 334 334 334 333 331 329 328 327 326 326 325 325 322 320 316 316 320 323 325 325 326 327 327 328 327 326 320 319 324 325 325 324 323 323 323 322 322 323 325 325 325
332 333 336 329 325 323 323 321 317 319 316 316 317 316 316 316 318 317 320 319 319 321 317 319 322 327 329 327 329 332 335 337 337 338 340 341 340 341 341 341 341 341 341 338 335 335 337 338 337 337 336 336 335 334 334 333 333 333 334 334 333 330 329 328 327 327 326 326 325 323 319 316 317 320 320 320 324 326 326 326 325 325 321 319 322 324 324 322 322 323 322 322 322 322 324 324 324
331 334 336 323 324 326 322 319 319 320 316 319 318 316 316 316 318 318 320 320 319 319 317 317 319 327 328 325 328 331 335 336 336 338 338 341 340 340 341 341 341 341 342 339 335 334 335 337 337 336 336 335 335 335 333 333 333 333 333 334 333 332 330 329 328 327 327 326 326 325 322 319 317 318 317 315 319 325 325 324 324 324 323 319 318 322 322 320 321 322 322 321 321 322 322 323 323
328 336 338 323 325 326 322 320 318 320 318 322 320 316 317 316 317 316 319 319 319 319 315 314 319 328 327 327 331 331 335 335 337 337 337 341 338 339 341 341 342 341 342 340 336 334 333 335 336 336 335 335 335 334 333 333 333 333 334 334 334 333 331 330 328 328 327 327 327 326 325 323 320 318 316 312 313 321 323 322 322 323 323 320 319 322 321 319 320 321 321 321 321 321 321 322 322
324 341 341 327 324 320 321 321 320 322 318 320 319 317 317 316 316 315 317 319 319 317 314 313 317 322 324 333 338 331 333 335 336 337 337 339 338 338 340 341 342 341 342 340 337 334 334 334 334 335 334 334 335 334 332 333 334 333 333 334 334 334 332 331 329 329 328 327 327 327 326 325 323 319 315 310 308 315 319 320 321 321 321 320 320 321 319 317 319 321 321 320 320 320 320 321 320
333 345 335 323 320 316 319 321 322 322 319 320 317 317 318 314 316 316 315 319 317 315 317 315 314 317 321 331 332 327 332 335 335 336 337 338 338 339 340 342 342 342 342 340 338 335 335 335 335 335 334 333 334 333 332 332 333 333 334 334 334 334 333 332 330 330 328 328 327 327 327 326 325 321 316 310 305 309 314 316 318 319 318 317 318 318 317 316 317 320 321 320 320 320 320 320 320
336 340 330 322 319 317 317 320 321 322 321 321 316 316 319 315 315 314 312 317 316 317 321 318 319 326 330 329 322 324 333 335 334 335 336 338 339 340 341 342 342 342 341 340 339 336 336 336 336 335 333 333 333 332 332 331 332 333 334 333 334 333 333 333 331 330 329 328 327 327 327 327 327 324 319 313 306 305 309 311 313 315 312 312 316 317 317 316 316 320 321 320 320 319 319 319 319
329 332 329 321 322 320 316 320 321 322 320 318 317 318 319 316 316 314 313 317 316 317 319 322 331 331 330 329 323 328 336 335 335 335 336 338 339 341 341 342 342 342 341 341 340 337 336 337 337 335 334 334 334 333 332 331 331 333 333 333 334 333 333 333 332 331 329 328 328 327 327 327 327 325 322 317 308 303 305 307 307 308 307 308 313 316 317 316 316 319 320 320 319 319 319 319 318
329 334 328 324 331 322 313 318 317 319 319 318 318 317 318 317 316 314 315 316 315 318 316 325 345 338 329 331 329 333 335 335 336 334 335 337 338 339 339 341 342 341 341 342 340 339 337 337 338 337 334 334 335 333 332 332 330 331 333 333 333 334 334 333 333 331 330 329 328 328 327 327 327 326 323 318 310 303 302 303 303 303 304 307 311 315 317 316 316 318 320 320 319 319 318 318 318
328 335 327 327 334 321 313 316 317 319 318 318 318 315 316 316 315 314 316 316 315 320 318 321 343 343 333 331 330 333 333 333 334 333 334 335 336 338 339 340 340 341 341 341 341 340 339 338 338 338 336 334 335 334 333 333 331 330 331 332 333 334 334 333 333 332 330 329 328 328 328 327 326 325 323 319 312 304 301 301 301 301 303 307 310 313 315 315 315 316 319 319 319 319 318 318 318
321 329 329 325 322 318 316 316 318 318 315 318 318 315 316 315 314 314 316 317 315 318 319 319 330 341 334 330 330 331 331 332 333 333 333 334 335 336 338 339 339 340 340 341 341 340 340 340 338 338 338 336 335 335 334 333 332 331 330 331 332 333 333 333 333 332 331 329 328 328 328 327 326 326 324 321 315 307 302 300 300 300 303 307 309 311 313 315 314 314 316 317 318 318 318 319 318
317 318 321 321 316 316 317 316 319 316 314 317 317 316 316 315 314 316 316 317 319 317 317 317 322 334 333 330 329 329 330 330 331 331 331 332 334 335 337 338 338 339 340 340 340 339 339 339 339 338 339 337 336 335 335 334 333 333 332 331 331 332 333 333 333 332 331 330 329 328 328 328 326 326 325 323 318 309 303 300 300 301 303 307 310 311 314 314 313 313 314 315 316 317 317 318 318
319 314 316 318 316 317 316 316 318 317 316 317 317 316 315 316 316 316 316 316 321 318 317 316 315 326 331 329 328 329 329 329 330 331 330 331 332 333 336 336 338 338 339 340 340 340 339 339 339 339 339 338 337 336 336 335 334 334 333 333 332 332 332 332 333 332 331 330 329 329 329 328 327 326 325 324 319 311 304 300 299 301 303 307 310 310 313 314 313 313 314 315 315 316 317 317 318
322 317 315 316 316 317 316 316 318 319 319 316 315 315 315 318 316 314 315 317 322 316 315 311 309 322 329 328 328 328 328 328 329 330 330 330 331 332 334 336 337 337 338 339 339 339 338 339 337 338 339 338 338 337 337 337 336 335 334 334 333 332 331 331 332 332 331 330 330 330 329 329 328 326 325 325 321 311 304 301 299 301 303 307 310 310 311 312 312 312 313 314 315 315 317 317 318
321 318 315 316 316 316 315 317 320 319 318 316 315 316 317 317 315 315 317 321 322 316 314 312 314 324 329 329 330 326 326 327 328 329 329 329 329 330 331 332 335 336 337 338 338 338 338 338 338 337 337 338 338 338 338 338 337 337 335 334 334 333 332 332 331 331 330 330 330 329 330 329 328 327 326 325 322 314 305 300 299 300 303 306 309 310 310 311 311 311 312 314 314 315 316 318 318
317 318 317 317 316 315 315 316 319 318 317 316 316 317 316 315 313 316 321 321 320 318 319 319 323 331 330 329 329 325 325 325 326 328 328 329 328 328 329 329 331 333 335 337 337 337 337 337 337 337 337 337 338 338 339 338 337 338 337 335 335 334 333 333 332 331 330 329 329 329 330 330 329 328 326 325 324 319 308 301 299 300 302 305 307 308 309 309 310 310 311 313 314 315 316 317 318
316 318 317 317 316 315 316 316 316 317 317 316 318 317 316 315 314 318 321 317 316 320 321 318 326 334 328 327 327 324 324 324 326 326 327 327 327 328 328 329 329 329 332 335 336 337 337 336 336 336 336 336 336 338 339 338 337 336 338 337 335 335 335 334 333 332 331 330 329 329 329 330 330 329 328 326 324 321 313 304 300 301 302 304 305 305 306 307 308 309 311 312 313 314 316 317 317
316 318 317 317 317 315 315 316 315 316 314 316 318 316 316 315 316 320 319 314 314 320 322 318 324 330 323 325 325 321 322 323 324 324 325 326 327 328 328 329 328 328 329 330 333 336 336 336 336 335 335 335 335 337 338 338 337 336 336 337 336 336 335 335 334 333 332 331 330 329 330 329 329 330 328 327 325 322 316 309 303 301 301 303 303 303 304 305 306 308 310 312 313 313 315 315 316
316 319 319 317 319 318 314 315 316 316 315 316 317 313 315 316 317 320 317 314 315 316 321 320 323 324 320 322 322 320 319 320 322 322 323 325 326 328 328 328 327 328 328 326 328 332 334 334 334 334 333 334 335 336 337 337 337 337 336 335 336 336 335 335 335 335 334 333 331 330 330 330 329 330 329 327 325 323 317 312 308 304 301 302 304 304 305 305 306 308 310 311 312 313 313 314 315
316 317 320 320 320 319 314 314 315 315 315 316 313 311 316 319 318 317 315 315 314 314 318 319 320 320 317 317 319 320 316 315 319 321 322 323 324 326 327 326 326 327 327 328 329 329 330 332 332 332 331 333 335 336 337 337 336 336 337 336 337 337 336 335 335 335 335 334 333 331 331 331 330 329 330 328 326 324 318 311 309 307 304 303 305 306 307 307 307 308 309 310 311 312 313 313 314
316 313 322 324 317 318 318 315 316 314 314 315 312 312 319 322 319 315 314 315 316 317 319 317 317 317 315 315 315 317 315 313 316 319 321 320 320 323 324 324 326 328 328 329 329 328 329 330 331 332 331 332 334 336 336 336 336 335 336 336 336 337 337 336 336 335 335 335 334 333 332 332 331 329 329 329 326 324 321 314 309 308 307 306 307 308 308 308 308 309 309 310 310 310 311 311 312
321 314 321 322 314 320 323 316 316 315 314 315 313 314 319 320 318 316 314 315 316 318 320 318 317 316 315 315 314 314 313 311 312 316 319 320 320 320 321 322 324 326 328 328 329 330 330 330 332 332 331 332 333 334 335 335 335 334 335 335 335 336 336 337 336 335 335 335 335 334 333 333 332 330 329 328 326 323 322 320 314 311 310 310 310 309 308 308 308 308 308 309 309 308 309 308 308
325 318 320 321 316 318 320 317 317 317 316 316 313 315 320 318 317 317 316 316 316 318 321 320 319 318 317 316 314 314 313 311 310 311 315 318 319 319 319 319 320 322 325 328 330 331 331 331 332 332 331 331 332 333 333 334 334 333 333 334 335 335 335 335 335 336 335 335 335 335 334 333 333 331 329 328 326 323 322 322 319 315 312 312 312 309 308 308 308 308 307 308 309 308 307 307 305
321 319 319 321 320 317 318 319 318 316 317 317 315 315 320 320 319 321 320 317 317 319 321 322 322 320 318 316 315 314 314 315 312 309 312 316 318 319 320 319 319 320 323 327 330 330 331 331 331 331 331 331 331 331 331 332 333 332 332 333 334 333 333 333 334 334 334 334 334 334 335 335 334 332 330 328 326 324 322 321 320 316 313 312 312 310 308 307 307 308 307 306 307 307 307 305 304
319 319 317 317 318 317 319 320 316 316 316 317 317 317 320 320 318 319 318 314 317 320 321 321 321 320 317 316 315 314 314 316 313 310 311 314 316 318 319 320 320 321 323 327 329 331 331 331 331 331 330 330 330 330 330 330 331 331 332 332 332 331 332 333 333 333 332 333 332 333 334 335 335 333 331 329 326 325 322 320 319 316 315 314 311 309 307 306 305 306 306 305 305 305 305 305 303
323 325 327 324 320 317 317 318 315 315 316 318 319 318 320 319 316 318 317 313 315 318 318 316 316 316 315 314 314 314 314 315 312 310 312 313 314 316 318 320 321 321 323 326 329 330 331 331 331 330 330 330 330 329 329 329 330 331 331 330 330 330 331 332 332 332 332 332 332 333 333 333 334 333 332 330 327 326 324 322 321 317 316 315 311 309 308 307 306 305 305 305 303 301 301 301 301
322 323 327 326 322 318 316 317 316 315 315 318 318 317 318 318 317 317 314 311 313 316 317 316 315 314 314 314 315 314 314 314 311 311 313 312 313 314 317 319 321 322 323 325 328 329 330 330 330 330 330 330 329 329 328 328 328 329 330 329 329 329 329 329 329 330 331 332 332 332 332 331 331 332 332 331 327 326 324 322 321 318 316 315 313 312 311 308 306 306 305 303 302 300 298 297 298
322 323 324 322 320 319 315 316 319 316 314 317 318 316 317 317 316 315 313 311 313 314 315 315 315 314 313 314 315 314 313 313 312 311 312 312 313 313 315 319 320 322 323 324 327 328 329 330 330 330 330 329 329 329 328 327 328 329 329 328 329 328 327 327 327 327 328 330 332 332 332 331 330 331 332 330 327 325 322 320 319 318 316 315 313 312 310 306 305 306 305 300 298 299 297 296 297
328 325 323 320 319 318 316 317 320 316 314 319 322 319 317 315 315 314 313 313 313 312 313 314 314 313 313 313 314 313 313 315 315 314 311 311 312 313 314 317 319 321 322 323 326 327 328 329 329 329 329 329 328 328 327 327 328 328 328 327 327 327 326 326 326 326 326 327 330 331 332 331 330 331 333 331 329 326 323 321 319 317 316 315 313 311 308 305 304 304 303 299 297 296 295 295 297
329 326 319 319 320 318 317 317 318 316 314 317 322 320 316 316 318 319 315 313 312 312 312 312 313 314 314 313 314 313 314 315 316 317 313 310 311 313 314 316 318 320 321 322 324 326 327 328 329 328 328 328 327 327 327 327 327 326 326 325 325 325 325 325 324 324 325 326 328 329 331 331 331 331 332 331 329 326 324 322 321 319 316 314 313 313 310 306 305 303 300 299 297 294 292 292 294
323 334 332 323 321 320 319 318 318 316 315 317 318 316 320 326 330 333 326 316 314 316 316 316 315 313 313 315 315 314 314 315 316 318 317 312 311 313 314 315 317 319 320 321 322 324 325 326 327 328 327 327 327 326 326 325 325 324 323 322 322 322 322 322 322 322 323 325 327 328 329 330 330 330 331 330 328 325 323 323 322 320 317 314 311 313 311 307 306 304 301 300 298 296 293 292 292
315 327 331 323 325 325 322 322 321 318 316 316 314 313 324 333 331 331 326 317 317 317 317 320 319 314 314 315 314 314 316 316 316 317 317 313 311 312 314 315 316 318 319 320 320 322 323 324 325 326 326 326 326 325 325 324 324 323 322 321 320 319 319 319 320 321 321 323 324 326 327 328 328 327 327 328 327 325 322 321 321 320 318 314 311 311 310 308 306 303 302 300 298 298 296 292 291
312 316 322 324 331 329 323 321 317 318 316 313 314 314 319 322 319 320 319 314 315 314 314 318 317 315 315 315 315 318 320 318 317 320 321 317 312 312 313 314 316 318 319 319 320 321 321 322 323 324 325 325 325 324 324 323 323 322 321 321 320 319 318 318 318 319 320 321 322 323 324 325 325 325 325 325 325 325 323 320 320 319 319 317 311 308 308 309 309 305 302 301 298 297 296 293 292
312 317 324 329 332 328 328 327 319 321 318 318 326 322 317 318 315 318 318 315 318 319 320 320 316 313 312 315 322 326 326 321 320 328 332 321 312 311 313 314 316 317 318 319 320 320 321 322 322 323 323 323 324 323 323 322 322 321 320 320 319 318 317 317 317 317 317 318 319 319 320 321 322 323 323 321 321 323 323 322 320 318 318 318 313 310 309 309 310 306 301 299 298 297 297 296 294
315 319 326 329 331 333 338 337 328 324 317 320 329 318 315 323 323 323 318 315 320 322 322 322 319 315 310 315 324 330 329 324 324 332 334 320 311 312 314 315 316 316 317 318 319 320 320 321 321 321 321 322 321 321 321 321 320 319 319 318 317 317 316 316 315 314 314 314 315 316 317 318 319 320 321 319 319 321 322 322 320 318 317 316 315 313 311 308 308 307 302 299 299 298 297 297 295
318 319 324 325 329 332 335 333 325 320 315 322 328 315 313 321 326 327 317 314 321 323 323 322 319 316 314 318 324 329 333 329 329 332 323 312 311 314 314 314 316 316 317 317 318 319 319 319 320 320 320 320 319 319 319 319 318 318 317 317 317 316 316 315 314 313 312 312 312 313 313 314 315 317 318 318 318 320 321 320 319 319 317 315 314 312 309 306 306 306 304 301 300 298 296 296 295
318 325 328 326 329 332 335 335 324 314 318 329 327 317 312 315 326 329 318 318 322 321 324 324 320 320 328 337 333 330 334 331 331 332 318 307 310 313 313 314 315 315 316 316 317 317 318 318 318 318 318 318 318 318 318 318 317 317 317 317 316 316 315 314 312 312 311 311 310 310 311 311 312 313 314 316 317 317 319 320 319 318 318 316 314 312 310 309 308 306 303 300 298 297 297 296 294
322 331 330 320 325 328 331 334 324 313 323 329 324 319 313 313 325 328 322 322 320 318 322 323 320 322 335 350 342 329 330 328 328 334 325 314 313 312 312 314 314 314 315 315 315 316 316 316 316 317 317 317 317 317 317 317 317 316 316 316 315 315 314 313 312 311 311 311 310 309 309 309 310 311 312 314 316 317 317 319 319 318 318 317 316 314 312 310 308 304 301 299 297 297 297 296 293
323 324 322 314 319 322 324 331 325 320 322 320 319 321 315 316 322 322 323 324 321 318 317 316 319 323 336 351 347 333 331 331 328 330 330 328 321 311 310 313 313 314 314 314 315 315 315 315 315 316 316 316 316 316 316 316 316 316 315 315 315 314 313 312 312 311 311 310 310 309 308 308 309 310 310 312 314 316 317 318 318 318 317 316 315 314 312 310 307 304 301 299 298 297 297 295 294
318 317 319 317 319 317 320 327 321 320 322 316 316 319 318 321 320 318 320 318 320 319 315 316 320 328 344 351 345 336 332 332 330 328 331 333 319 308 309 313 312 313 314 314 314 314 314 314 314 315 315 315 315 315 315 315 315 315 314 314 314 313 313 312 311 311 311 311 310 309 308 308 308 309 310 312 314 315 317 317 317 317 316 315 315 314 312 310 307 304 302 300 299 299 297 295 294
318 318 317 317 324 323 321 324 320 320 324 318 314 318 325 325 317 316 319 318 322 323 318 318 320 327 337 340 339 337 333 332 330 328 331 324 309 307 311 311 311 314 314 314 314 313 314 314 314 314 314 315 315 314 315 314 314 314 314 314 313 313 312 312 311 311 311 310 310 309 308 308 308 308 310 312 314 315 315 316 316 316 315 315 314 313 311 309 306 304 302 301 301 299 297 295 295
318 317 314 314 321 323 319 318 321 321 321 319 317 321 328 323 315 316 318 320 323 321 319 319 321 324 325 328 335 336 335 335 328 326 330 319 306 307 310 309 311 314 313 314 313 313 314 313 314 314 314 314 314 314 314 314 314 314 313 313 312 312 312 311 311 311 310 310 309 309 308 308 308 308 310 312 314 315 315 315 315 315 315 315 314 313 311 309 306 304 302 302 301 299 297 296 297
316 315 319 320 318 321 319 314 315 315 314 318 318 320 323 316 315 318 316 316 318 319 321 321 322 322 322 328 330 327 332 336 330 326 328 319 308 306 308 309 311 313 313 314 313 313 314 313 314 314 314 314 314 314 314 313 313 313 312 313 312 312 311 311 311 310 310 309 309 309 308 308 309 309 310 312 314 315 316 315 315 316 316 315 314 312 310 308 306 304 303 303 302 300 298 298 298
319 320 323 319 313 319 323 317 320 319 316 320 318 316 317 313 316 321 316 313 314 319 321 320 323 323 323 329 325 320 327 333 328 323 322 315 307 306 308 309 311 313 313 313 313 313 313 313 314 314 313 314 314 314 314 313 313 312 312 312 311 311 311 310 310 309 309 308 308 309 309 309 309 309 309 310 312 314 315 315 314 314 315 314 313 311 309 307 306 304 304 303 303 301 299 299 298
320 322 320 319 318 322 320 316 321 320 316 322 322 315 313 313 316 317 314 315 317 318 319 319 322 322 321 323 320 320 325 328 329 327 325 320 309 306 308 309 311 312 312 312 312 312 313 313 313 313 313 314 313 313 313 313 312 312 312 311 311 311 310 310 309 308 308 308 308 308 309 310 310 310 310 311 311 312 313 313 313 312 313 312 311 310 308 307 305 304 303 302 301 300 299 299 298
316 316 315 318 323 324 321 318 319 319 316 320 322 318 315 317 318 315 312 319 322 318 318 321 320 319 318 316 317 322 324 327 333 333 335 327 310 306 310 309 311 311 311 312 312 311 312 312 312 313 313 313 313 313 312 312 312 311 311 311 310 310 309 309 308 308 307 307 307 308 309 310 310 310 311 311 311 311 312 312 311 311 311 310 310 309 308 307 305 304 303 302 301 300 299 299 298
318 318 317 318 318 319 322 319 318 320 321 320 319 316 318 321 319 316 315 318 320 319 319 319 319 318 316 314 316 320 321 327 334 333 338 328 308 306 310 309 310 311 311 311 311 311 311 311 312 312 312 313 313 312 312 312 311 311 311 310 310 309 309 308 307 307 307 307 307 308 308 309 310 310 310 311 311 311 312 312 311 311 310 310 309 308 307 307 305 304 302 302 301 300 299 298 297
317 316 317 318 318 318 319 317 316 318 318 321 319 313 317 320 315 314 317 316 316 317 315 317 321 323 324 320 316 316 318 327 330 330 337 327 308 306 309 309 310 310 311 312 311 311 311 311 312 312 312 313 312 312 312 311 311 311 310 310 309 309 308 308 307 307 307 307 307 307 308 309 310 310 310 310 310 311 311 311 311 311 310 309 309 308 307 306 305 304 303 301 301 300 299 298 297
Wind_Speed
7 4 1 2 2 4 3 5 2 2 3 3 1 1 2 2 2 4 2 1 2 1 2 2 3 4 4 5 8 7 4 2 4 4 3 5 17 24 21 18 21 22 23 23 22 21 19 17 16 17 16 16 16 15 15 14 14 14 14 13 13 15 16 17 17 18 18 18 18 18 19 18 19 19 19 18 17 16 17 19 19 18 19 19 18 21 23 23 23 22 22 22 23 25 25 25 24
6 2 1 2 3 3 1 3 3 3 5 3 1 2 2 2 3 5 4 3 3 2 1 5 8 9 8 8 7 4 3 3 2 4 0 12 23 22 20 20 23 23 23 23 22 22 20 18 17 17 16 16 16 15 15 14 14 14 13 13 12 14 16 17 17 18 18 18 19 19 19 18 19 19 18 18 17 17 17 18 19 19 20 20 20 22 23 23 22 22 22 21 24 27 27 26 25
4 2 3 3 3 4 1 4 2 1 4 3 2 2 1 3 4 5 5 5 5 5 5 6 7 6 6 6 4 3 1 4 1 2 3 17 20 18 21 21 24 23 23 23 22 21 20 19 18 17 16 16 16 15 15 14 14 14 13 12 12 14 16 17 17 18 19 19 19 19 19 19 19 18 17 17 17 16 17 18 19 20 20 20 21 22 22 22 22 21 21 21 24 25 25 25 25
4 2 3 3 2 3 3 3 2 5 3 3 2 4 2 6 6 5 5 5 4 4 3 3 4 2 5 6 2 3 2 2 1 2 5 15 17 21 24 23 24 22 22 22 22 21 19 19 18 17 17 17 16 15 15 15 14 14 13 12 12 14 15 17 17 17 18 18 19 19 19 18 18 17 16 17 17 16 18 19 20 20 19 21 22 22 22 22 21 21 21 21 23 23 22 23 24
4 2 3 4 3 1 2 2 2 5 4 4 3 4 4 6 7 5 4 3 2 3 4 4 3 2 4 4 2 2 3 2 2 4 9 15 20 25 25 24 24 22 22 21 21 21 20 19 18 18 17 17 16 16 15 14 14 13 13 12 12 13 15 16 17 17 17 18 19 19 18 18 17 16 15 16 15 16 18 19 21 20 19 21 22 22 22 21 20 20 21 21 21 21 21 22 22
2 4 4 5 2 1 2 2 3 2 4 5 4 4 6 6 7 6 3 2 1 2 4 4 3 2 3 2 1 3 3 3 3 7 13 18 23 26 25 25 24 23 22 21 21 21 20 19 18 18 17 17 16 16 15 14 14 13 13 12 11 13 14 15 16 17 17 18 18 18 18 18 17 16 15 15 15 16 17 18 21 21 19 21 22 21 21 20 20 21 22 22 21 21 21 21 20
1 3 3 4 2 1 3 3 4 2 2 5 6 6 7 6 6 7 5 3 2 3 4 3 5 7 2 1 1 2 2 3 6 11 17 24 26 25 24 25 24 23 22 21 21 21 21 20 19 19 18 17 16 16 15 14 14 13 13 12 12 12 14 15 16 16 17 17 18 19 19 18 16 15 14 14 15 15 16 18 19 19 18 21 22 21 20 19 20 23 23 23 22 20 20 20 20
2 2 1 4 2 3 4 2 2 3 0 3 5 7 9 7 7 6 4 3 2 1 4 3 5 7 1 2 2 3 1 6 10 16 23 27 27 25 24 24 24 23 21 21 21 21 22 21 20 19 19 18 16 16 16 15 14 14 13 12 12 12 13 14 15 16 17 17 17 18 18 19 17 15 14 13 13 14 15 15 15 15 15 19 21 21 20 19 20 23 22 22 21 20 20 19 20
3 2 1 3 1 3 3 2 1 2 1 3 4 4 7 7 6 5 5 2 3 3 3 4 4 5 1 4 1 5 2 10 14 21 25 26 27 26 25 23 23 22 21 21 21 21 22 21 21 20 19 18 17 17 16 16 15 14 14 13 13 12 13 14 15 15 16 17 17 17 17 18 18 16 16 14 12 12 13 12 13 13 13 18 21 21 20 19 22 23 22 21 21 20 20 20 21
3 3 1 2 2 4 2 0 1 1 2 3 4 5 7 7 5 5 6 4 3 4 2 3 5 5 4 3 1 4 3 14 19 24 25 26 27 26 24 22 20 21 21 21 22 22 22 22 20 20 18 17 17 17 16 16 15 14 13 13 13 12 12 12 13 14 15 16 16 16 16 16 17 16 15 15 13 12 13 12 12 12 14 18 20 21 20 21 23 22 21 21 20 20 20 20 22
2 4 2 3 3 3 2 3 2 2 2 2 2 5 8 6 5 4 5 5 1 4 3 2 5 5 5 2 2 2 8 16 22 27 27 27 26 25 24 21 19 19 21 22 22 22 22 22 20 19 18 17 17 16 16 16 15 14 13 13 13 12 12 12 12 13 14 15 15 15 15 15 15 15 13 14 14 13 13 12 13 14 16 19 21 21 20 21 22 20 21 21 20 20 21 21 21
2 3 4 4 2 3 4 4 5 3 1 2 3 5 5 5 7 4 5 6 2 4 2 1 5 5 5 0 2 2 10 16 23 27 27 26 22 22 23 21 19 18 19 21 22 22 22 22 21 19 18 17 16 16 16 16 16 15 14 13 13 13 12 12 12 13 13 14 14 14 14 14 14 13 12 13 14 14 13 13 15 16 17 19 21 20 19 21 21 19 20 20 20 20 21 21 21
3 2 5 2 2 4 4 4 4 2 0 4 4 4 5 6 6 8 7 6 4 5 2 4 6 6 4 1 1 2 9 16 22 25 26 25 20 18 20 21 20 18 18 20 22 22 22 22 21 20 18 17 16 15 15 16 16 15 15 14 14 13 13 13 12 12 13 13 13 14 14 13 13 11 11 12 14 15 14 15 16 17 17 18 20 19 19 22 20 19 20 20 20 20 21 21 21
3 3 5 1 1 4 5 2 2 3 2 6 3 3 5 3 5 8 8 6 5 5 2 3 7 6 3 1 1 3 10 17 23 24 24 23 18 16 19 22 22 20 18 19 21 22 22 22 21 20 19 18 17 16 16 17 17 16 15 14 14 13 13 13 12 12 12 13 13 13 13 13 12 11 11 11 12 14 15 16 17 17 17 18 18 17 19 21 19 19 20 20 20 20 20 20 20
2 2 5 3 2 2 4 2 4 5 4 5 3 3 4 1 4 6 6 8 5 5 2 1 5 3 3 6 4 8 16 22 23 24 23 21 17 15 19 24 23 21 19 19 21 22 22 22 21 20 20 20 19 18 17 17 17 17 16 15 14 13 13 13 12 12 12 12 12 12 13 13 12 11 11 10 12 15 17 17 17 17 17 18 17 18 20 21 19 19 19 20 20 20 20 20 19
2 3 4 2 1 2 4 3 4 4 4 4 2 4 6 1 3 4 5 7 3 2 2 2 2 1 6 8 6 15 24 24 25 24 22 19 15 15 19 24 23 21 20 21 22 23 23 22 21 20 20 20 20 19 18 18 18 18 17 16 15 14 13 13 12 12 12 12 12 12 12 12 12 11 11 10 11 14 16 17 18 17 17 18 18 19 22 20 19 19 19 19 19 19 20 19 19
3 4 3 2 2 3 4 4 5 4 4 4 3 4 7 1 1 1 1 5 5 2 5 2 3 3 3 3 5 22 29 25 26 24 21 19 16 17 21 24 24 23 22 22 22 23 23 23 22 21 21 21 21 19 18 19 19 18 18 16 15 14 14 13 13 13 13 12 12 12 12 12 11 11 11 11 11 13 15 16 17 16 17 18 19 21 22 20 19 18 18 18 18 18 19 19 18
4 3 3 1 3 3 4 6 6 5 5 6 5 5 8 4 1 1 2 6 4 4 6 3 5 6 3 0 12 29 30 27 27 24 22 19 18 19 21 25 25 24 24 23 23 24 25 24 23 23 22 22 21 20 19 19 19 19 18 17 16 15 15 14 14 14 14 14 13 12 11 11 11 11 10 11 12 13 14 15 16 16 17 19 20 21 21 20 19 18 18 18 17 18 18 19 18
3 3 3 2 5 3 4 5 5 3 6 8 5 5 6 6 5 2 3 2 3 5 4 5 5 6 6 8 20 28 29 28 27 25 24 22 22 21 21 24 25 26 26 25 26 25 25 25 24 24 23 23 22 22 21 20 20 20 19 19 18 17 16 16 15 15 15 15 14 13 12 11 11 10 10 11 12 13 14 14 16 16 18 20 22 21 21 20 20 19 18 17 17 17 18 19 19
2 4 3 4 6 3 3 3 3 5 6 10 5 4 3 4 4 2 4 5 3 4 3 1 0 2 3 7 16 24 24 25 26 25 24 23 24 23 24 25 27 28 29 28 27 25 26 27 26 25 24 24 24 23 23 22 21 21 20 20 20 19 18 17 16 16 16 15 15 13 12 11 11 11 11 12 12 13 14 15 16 17 19 21 22 22 21 20 20 19 18 17 17 17 18 19 19
2 4 3 5 3 2 2 1 2 3 4 10 7 5 1 3 3 3 7 6 2 6 7 7 9 9 9 7 12 20 21 21 23 23 23 23 23 24 26 28 29 30 30 29 28 27 27 27 27 26 25 25 25 25 24 24 23 22 22 21 21 20 20 19 18 17 17 16 16 14 13 12 12 12 12 12 12 13 15 16 16 17 20 21 22 21 21 20 20 19 18 18 17 17 18 19 19
3 1 4 4 3 2 3 3 2 2 5 6 8 6 4 3 2 4 9 7 6 7 8 11 11 13 15 13 14 16 16 18 20 22 22 23 25 26 27 27 26 26 28 30 30 29 28 27 27 26 26 27 26 26 26 25 25 24 24 23 22 21 21 20 19 19 19 18 17 16 15 14 13 13 12 12 12 13 14 16 16 18 19 21 21 21 21 20 20 20 19 18 18 17 18 18 19
3 2 2 1 2 3 1 3 3 3 8 6 7 4 3 5 1 3 8 8 7 6 8 11 9 15 20 18 16 14 14 16 19 24 26 26 28 29 30 29 28 28 30 31 31 30 29 29 28 26 26 27 27 27 26 26 26 26 25 24 23 23 22 22 22 21 20 20 19 18 16 15 15 14 13 13 13 14 15 16 17 18 19 20 20 20 21 20 20 21 20 19 19 18 18 19 20
5 2 1 1 1 3 0 1 2 6 8 4 3 3 4 6 2 2 4 8 8 6 2 5 10 16 18 15 14 15 16 19 23 28 30 31 34 34 34 33 32 31 31 32 33 32 31 31 30 28 27 27 28 28 27 27 27 27 26 26 25 24 24 24 24 23 23 22 21 20 18 17 16 16 15 14 14 15 16 17 18 19 20 20 20 20 21 21 21 21 20 20 19 19 20 21 22
4 3 2 1 2 1 1 2 5 6 5 2 5 3 3 5 2 1 6 9 8 5 3 5 10 14 13 13 13 13 14 19 23 25 28 30 31 30 30 31 31 30 32 34 34 34 34 33 31 31 30 29 28 29 28 27 27 27 27 27 27 26 26 26 25 25 25 24 24 22 20 19 18 17 17 15 15 16 17 18 19 20 21 21 21 20 21 21 21 21 21 20 20 21 22 23 24
2 4 3 2 1 2 1 3 4 4 2 2 5 1 4 2 1 2 8 9 5 2 5 5 10 11 11 11 13 13 13 17 21 23 26 28 25 24 26 29 30 32 36 36 35 37 36 34 33 33 33 31 29 30 31 29 28 28 29 29 29 28 28 27 26 26 26 26 26 25 24 22 19 19 19 18 17 17 18 19 20 21 21 21 21 21 20 21 21 21 21 21 21 22 24 24 25
3 6 5 4 1 3 2 2 2 2 2 2 6 2 5 3 2 4 8 4 5 7 5 4 8 10 11 10 11 15 15 19 25 24 22 22 22 25 28 29 32 35 36 36 37 38 36 36 35 35 34 33 32 32 33 31 30 30 30 30 30 30 28 28 28 28 27 28 28 27 26 24 22 20 20 20 19 18 19 20 21 22 22 22 21 21 20 20 21 21 21 22 23 24 25 25 26
6 8 6 6 5 3 2 3 0 1 2 2 6 2 5 4 1 7 5 1 6 8 7 6 7 8 10 10 10 12 15 21 24 20 20 23 28 31 32 33 36 36 36 37 39 38 37 37 37 36 35 35 35 34 33 33 32 32 31 30 31 30 29 29 30 29 28 29 30 29 28 27 25 23 22 23 21 21 21 21 22 23 23 22 21 21 20 20 21 22 22 23 23 24 26 27 27
6 6 5 6 8 3 2 1 1 1 2 1 3 2 5 2 6 10 3 2 5 8 7 7 7 7 7 9 8 8 14 19 18 20 26 31 33 34 35 38 38 37 38 38 38 37 38 37 36 36 35 36 37 36 35 33 33 32 32 31 31 31 29 29 31 32 31 30 31 31 30 29 28 27 25 25 24 23 23 23 23 23 24 23 22 21 20 21 22 24 24 24 25 26 27 27 27
3 4 5 2 6 4 5 1 1 1 1 2 3 0 6 7 11 10 4 2 6 7 7 7 7 7 6 7 7 7 12 15 17 25 32 33 34 34 36 38 37 37 37 36 36 37 37 37 36 35 35 36 38 37 36 35 33 32 32 31 32 32 31 29 30 33 33 32 32 32 32 31 30 30 28 27 27 26 25 26 26 25 24 24 23 22 22 23 24 26 27 27 27 27 28 28 27
2 2 3 2 2 3 7 2 2 3 0 3 6 2 6 8 10 9 7 1 8 7 8 7 7 7 6 6 7 8 10 16 23 29 33 34 34 34 36 36 36 37 36 35 37 37 36 36 36 35 35 36 38 38 37 36 34 33 32 31 31 32 32 31 31 32 33 33 33 33 34 33 32 32 31 30 30 29 28 28 28 27 26 25 25 24 23 25 26 27 29 29 29 28 29 29 28
3 2 1 3 3 4 7 2 5 5 1 5 7 2 6 7 9 8 6 1 7 7 7 7 7 7 7 7 7 8 9 16 24 27 31 34 34 34 36 36 35 37 37 36 36 36 36 36 36 36 36 36 38 39 38 37 35 34 33 32 31 31 31 32 31 31 32 32 33 34 36 36 35 34 33 33 32 32 31 30 30 29 28 27 27 26 25 27 28 29 29 30 30 30 30 29 28
3 3 2 2 2 2 4 2 2 3 1 3 3 2 4 4 6 7 4 3 4 5 6 7 7 8 8 7 8 8 8 11 16 23 30 33 34 35 36 36 36 36 37 37 36 35 36 36 36 37 36 37 37 38 38 37 36 34 33 32 32 31 31 31 31 31 32 32 32 34 35 35 34 35 35 34 34 34 34 33 32 31 31 30 28 28 28 28 30 31 30 30 31 32 32 31 29
3 2 1 3 3 3 2 3 3 2 2 1 1 2 6 6 7 9 7 3 2 5 7 8 8 8 8 7 8 8 8 9 10 20 31 34 35 36 36 36 35 35 36 36 36 36 36 36 37 37 36 36 37 37 37 37 36 35 33 32 32 32 32 32 32 31 32 33 33 34 35 33 33 34 35 35 35 36 36 35 35 34 33 32 30 30 30 31 32 32 33 32 31 32 33 32 30
5 3 2 2 2 3 3 3 3 2 2 2 1 2 10 12 9 10 9 3 3 8 8 7 8 9 9 8 8 8 9 10 13 21 30 33 36 36 36 36 35 35 35 35 35 35 35 36 36 37 37 37 37 37 36 36 35 35 34 32 31 32 32 33 33 32 32 32 32 32 34 35 35 35 36 36 37 37 37 37 36 36 35 33 33 32 32 33 32 32 33 33 31 31 33 33 32
9 6 5 5 3 3 4 4 3 1 3 3 5 5 8 11 10 10 10 4 5 9 8 8 9 8 9 8 9 10 9 11 16 22 25 28 33 35 35 35 35 34 34 34 34 34 35 36 36 37 38 38 37 36 36 35 35 35 34 33 33 33 32 32 32 33 32 32 32 31 32 34 34 34 34 36 38 39 39 39 38 38 37 36 36 34 34 35 35 34 34 34 33 30 31 33 33
7 6 5 4 4 2 3 2 4 1 3 5 5 5 8 10 11 12 10 4 4 9 10 10 10 10 10 9 11 12 10 11 15 17 21 24 27 29 31 32 32 31 31 32 33 34 35 36 37 38 38 37 37 37 37 37 37 36 35 36 37 35 33 32 31 32 32 32 32 32 32 32 32 33 34 38 42 42 42 42 41 41 40 39 38 36 36 36 37 37 34 34 35 34 33 32 34
6 6 5 3 2 2 2 2 4 2 1 4 3 4 10 10 11 12 9 7 8 11 11 12 13 12 10 10 13 13 9 9 10 13 18 22 22 24 26 28 30 30 31 32 33 35 35 35 36 37 37 37 37 38 37 37 39 38 37 37 37 35 34 33 32 32 31 31 32 33 33 32 32 34 37 41 44 44 44 44 43 43 42 41 39 36 35 37 39 39 37 35 34 35 36 36 38
5 4 5 3 1 1 3 3 4 4 1 4 5 5 10 10 11 12 11 11 11 10 10 12 12 11 11 11 12 11 9 9 8 10 16 19 19 21 23 26 30 32 32 32 32 33 34 34 35 35 36 37 37 38 38 38 38 37 36 34 34 33 32 32 32 32 30 31 32 33 34 34 33 34 36 39 42 44 45 45 44 44 44 43 41 39 37 38 39 38 40 39 35 33 33 38 40
4 4 4 2 2 2 1 3 4 3 2 1 4 6 9 8 6 10 12 10 9 8 9 11 10 11 13 11 9 9 10 10 9 10 12 12 13 17 22 27 30 30 29 30 31 32 33 35 36 35 36 36 37 37 37 37 36 35 33 31 30 30 30 31 30 30 29 30 32 34 35 35 34 34 34 36 40 44 46 45 45 44 44 44 43 42 41 42 41 40 40 40 39 35 32 37 37
2 3 5 4 3 4 3 1 1 3 4 3 4 5 7 5 4 7 7 4 6 5 5 9 10 11 11 10 9 9 9 10 10 11 9 7 11 18 24 27 27 27 28 30 32 33 34 35 36 36 36 36 36 36 36 36 34 32 30 27 26 26 27 28 29 30 29 29 32 34 36 35 34 33 32 33 37 42 45 46 46 46 45 45 44 43 44 45 44 44 44 43 42 40 35 36 34
1 2 5 7 7 6 2 2 4 4 4 3 4 4 6 6 5 7 6 6 7 4 4 9 11 9 9 10 10 8 8 9 9 8 7 8 13 17 20 21 22 26 29 31 32 32 33 34 34 34 35 35 35 35 35 35 34 33 31 29 27 26 26 28 30 32 31 31 32 33 34 35 34 34 33 32 33 38 43 45 46 47 46 45 44 43 44 45 45 45 47 46 44 43 39 38 37
1 3 5 7 8 7 4 3 3 1 3 3 4 3 5 7 5 8 8 8 11 8 8 11 11 9 8 7 8 7 9 9 6 6 6 8 12 14 16 20 23 27 29 29 29 29 30 31 32 33 34 34 34 35 35 35 35 34 34 33 32 30 30 30 31 31 31 31 32 32 32 33 34 34 34 33 33 35 40 43 44 46 45 45 44 43 44 46 47 46 47 47 45 42 38 40 40
2 3 6 8 8 7 5 5 3 1 3 4 4 4 3 6 6 7 5 6 10 11 11 12 11 11 9 5 6 8 9 7 5 7 7 8 12 15 18 22 25 26 26 26 26 28 29 30 30 31 32 33 34 34 35 35 35 35 35 33 33 32 31 30 29 29 30 30 31 32 31 32 33 33 34 34 33 34 38 42 44 44 45 45 45 44 44 45 47 47 46 45 44 42 41 43 43
3 4 7 6 7 7 5 6 3 1 2 5 5 2 2 6 7 5 3 3 8 10 12 12 11 11 8 5 7 9 8 6 6 8 7 8 12 17 20 21 23 24 23 25 26 27 28 28 29 30 31 32 33 33 34 34 35 34 34 33 32 32 31 29 28 27 28 29 30 31 31 31 32 33 33 32 32 34 36 41 43 44 44 44 45 45 45 45 45 47 47 46 45 45 44 42 41
3 5 7 5 6 6 5 5 3 3 2 4 6 3 3 6 7 5 2 2 7 9 9 10 9 9 7 7 9 8 6 4 6 6 7 9 13 16 17 17 19 21 22 23 24 25 26 27 28 29 30 31 31 32 32 33 33 33 33 33 32 32 30 29 27 27 27 27 29 29 30 32 32 33 33 32 33 34 35 39 42 43 43 44 45 44 44 44 44 46 49 49 48 46 44 41 39
7 6 7 6 6 5 4 3 4 2 3 7 7 5 3 4 6 4 3 4 6 6 7 7 8 8 7 6 6 5 3 1 4 4 4 6 8 10 12 15 16 18 20 21 22 24 25 26 28 29 29 29 30 31 31 32 32 33 33 33 33 33 31 29 28 28 27 27 28 29 30 32 33 33 33 32 34 35 35 37 39 41 41 42 43 43 43 43 44 46 47 46 46 45 44 42 38
7 5 5 4 4 4 4 4 4 1 5 6 5 2 3 4 6 5 5 7 6 6 6 7 9 9 8 6 5 4 2 2 3 2 1 1 3 6 10 13 14 16 19 21 22 23 24 26 27 28 28 29 29 30 30 31 32 32 33 33 33 33 32 31 30 30 29 29 29 29 29 30 31 32 32 33 35 37 37 37 38 39 40 42 43 43 44 44 44 45 45 45 44 43 42 41 38
6 5 6 4 2 3 3 3 0 3 6 4 3 1 2 6 7 7 9 10 9 7 7 7 8 8 7 6 6 4 4 3 2 2 1 2 4 6 10 14 15 16 18 20 22 23 24 25 26 27 28 28 29 29 30 31 32 33 33 34 34 33 33 32 32 32 31 30 29 28 28 28 30 31 33 35 37 38 39 39 40 41 42 43 44 43 44 44 44 44 45 45 45 43 42 42 41
4 5 5 4 2 1 2 4 2 4 5 3 3 1 3 5 4 9 12 10 8 6 7 8 7 7 7 7 5 4 4 5 4 4 4 4 6 8 12 14 15 16 18 20 22 23 24 24 25 26 28 28 28 29 30 31 33 34 34 34 34 33 33 33 33 33 32 31 29 28 28 28 30 32 34 36 37 38 39 40 40 41 42 42 42 43 43 43 44 45 46 47 47 45 44 43 43
3 4 6 5 5 5 4 4 3 4 3 3 3 1 3 3 3 7 9 8 8 6 7 7 6 7 6 6 5 5 5 5 5 5 5 6 8 11 13 13 14 16 19 20 22 22 23 23 24 26 27 28 28 29 30 32 33 33 34 34 34 34 34 33 33 33 32 30 29 28 29 28 29 31 33 35 36 36 37 38 38 39 40 41 41 42 42 42 43 44 45 47 46 44 43 43 44
2 3 5 3 5 5 2 3 5 3 2 3 2 3 5 4 6 9 7 8 9 7 7 7 6 7 5 6 6 5 5 6 5 6 6 7 11 13 14 13 15 18 19 21 22 22 23 24 25 26 27 27 28 29 30 31 32 33 34 34 34 34 33 33 33 32 31 30 29 29 29 29 28 28 30 33 34 35 36 36 37 38 38 39 40 41 42 42 43 44 45 46 45 44 43 44 45
2 3 3 5 4 7 4 2 1 3 2 4 1 5 5 4 7 9 6 8 9 8 7 6 6 6 5 8 7 4 5 6 6 7 7 8 12 15 16 16 18 20 22 23 23 22 23 24 25 26 27 28 28 29 30 31 31 33 34 34 35 34 34 34 34 33 31 30 29 29 29 28 27 26 28 31 33 34 36 36 37 38 38 39 40 41 42 43 43 44 46 46 47 46 45 46 46
5 3 5 4 2 4 4 1 3 4 3 5 1 5 6 2 5 6 6 4 8 9 9 7 8 7 6 9 9 4 4 6 6 7 7 8 11 14 17 19 22 24 24 24 23 22 22 24 25 26 27 29 29 30 30 31 32 33 34 35 35 35 35 34 33 32 31 29 29 30 29 29 27 26 28 30 33 35 36 37 38 38 39 40 41 41 42 42 43 44 45 46 47 47 46 46 45
5 4 4 4 2 1 2 2 2 1 2 5 4 5 5 5 6 3 2 3 8 9 9 7 8 8 7 10 10 8 7 6 5 6 6 8 11 14 17 21 24 25 25 24 22 21 23 25 26 27 28 28 29 30 31 32 33 33 34 35 35 35 35 34 33 31 30 30 30 30 31 30 28 26 29 31 33 35 36 38 39 38 39 39 40 40 41 41 42 42 43 44 44 43 44 44 44
3 2 2 3 2 4 3 3 3 4 3 4 4 5 4 6 6 7 7 7 7 7 7 7 9 10 9 9 8 8 7 6 6 6 6 7 10 16 19 21 24 25 25 25 23 23 25 26 27 28 29 28 29 30 31 32 33 33 34 34 34 34 34 34 33 31 31 31 31 31 31 31 29 28 29 30 31 32 34 36 38 38 38 39 39 40 40 41 41 41 42 42 42 42 42 43 43
3 3 4 2 1 2 2 1 2 4 4 3 3 5 7 6 4 8 10 9 9 9 8 8 9 10 10 8 8 7 6 6 7 6 6 7 9 14 17 19 21 22 23 24 25 26 26 25 27 28 29 29 31 32 32 32 32 32 33 34 34 34 33 33 32 32 32 31 31 32 31 31 30 29 30 30 30 29 30 33 36 38 39 39 39 40 40 40 41 41 41 41 41 42 42 41 40
6 6 7 7 5 4 3 3 1 2 3 4 3 6 9 5 5 7 8 8 9 8 8 7 8 9 10 9 7 6 6 7 7 6 6 7 8 10 11 14 17 19 22 24 25 25 26 26 27 28 29 31 33 33 32 32 32 32 33 34 34 33 32 32 32 32 32 32 32 32 32 31 32 31 30 31 31 29 29 31 34 37 40 40 40 40 40 40 41 42 42 41 41 42 42 41 40
Wind_Direction
336 341 272 175 115 118 71 66 75 331 72 90 162 133 149 199 154 120 113 9 57 338 300 18 51 79 101 114 140 139 111 146 170 150 216 196 148 157 164 161 163 158 158 158 153 149 147 146 142 140 137 134 129 123 117 110 104 102 99 95 88 85 83 82 83 86 92 92 91 91 90 91 93 94 94 95 95 97 96 90 86 85 86 84 84 87 88 91 91 90 88 84 84 89 91 90 90
345 359 89 127 62 88 199 73 98 342 57 86 269 140 143 352 88 143 171 159 150 176 113 80 73 70 79 104 123 100 46 338 185 158 203 146 143 157 167 164 164 161 161 160 156 153 150 146 145 142 138 136 132 127 121 114 110 108 106 100 95 90 87 86 86 89 93 95 96 95 95 96 96 96 95 93 90 91 90 88 88 85 85 83 85 90 92 94 92 90 89 86 89 94 93 91 91
354 70 90 123 57 62 77 43 100 79 80 135 247 263 134 103 142 189 202 171 166 151 120 90 76 70 72 68 54 66 39 323 136 107 104 142 146 164 169 165 164 163 162 160 159 157 152 148 147 144 141 139 134 131 125 120 115 112 110 105 100 95 91 90 90 92 93 96 99 99 99 98 97 96 94 94 95 97 97 94 93 91 88 85 88 94 96 96 93 91 89 87 91 95 94 94 94
4 60 69 113 56 37 59 50 138 118 123 178 190 270 221 147 168 207 215 190 183 144 128 82 57 31 84 89 72 77 132 289 138 100 134 158 159 166 168 165 165 164 162 161 162 159 153 151 150 147 145 142 138 135 130 124 121 116 114 109 104 100 96 93 92 94 95 98 100 101 100 98 97 95 97 102 102 103 106 104 98 95 91 88 92 97 98 97 93 90 89 88 91 93 96 99 100
2 50 64 80 73 41 82 87 102 105 170 181 153 249 230 172 167 190 225 237 238 130 123 98 73 334 70 102 131 109 169 158 171 154 145 166 164 164 168 165 164 163 162 162 164 163 157 154 154 152 147 145 142 139 135 130 126 122 118 114 108 104 100 97 96 96 99 103 104 104 101 101 99 96 105 110 104 100 103 104 98 94 91 92 96 99 100 98 93 90 89 90 91 91 96 101 102
11 80 65 59 84 162 93 95 102 124 208 165 148 226 218 192 173 171 183 199 296 95 112 96 120 117 59 359 65 125 188 142 156 165 149 158 162 164 166 163 164 163 163 163 166 166 161 159 159 156 150 148 146 143 140 136 133 128 124 119 114 108 105 101 100 100 102 106 107 108 104 102 100 101 108 109 104 101 102 100 97 94 92 95 99 101 102 99 95 93 93 94 93 89 94 101 103
35 80 39 52 34 39 97 126 141 189 224 163 159 177 194 212 190 154 144 144 44 29 71 97 129 109 71 303 65 30 271 192 158 159 154 155 159 163 162 163 164 163 164 164 165 166 162 161 162 159 154 152 150 148 144 141 139 134 131 127 122 115 111 107 105 105 105 107 109 110 109 104 103 107 110 107 106 105 103 100 98 95 94 100 101 102 104 102 97 97 98 99 96 92 95 99 103
56 82 33 83 38 20 93 107 160 184 100 156 161 167 183 196 191 151 137 136 109 47 65 129 128 96 354 31 97 323 8 164 159 154 155 156 160 162 162 165 163 161 164 164 164 164 161 162 164 162 158 155 154 152 149 147 145 141 138 135 129 123 117 113 110 109 107 108 109 112 114 112 109 107 107 107 108 107 106 102 100 98 98 104 104 104 106 103 99 99 100 102 103 100 97 98 102
63 61 26 84 92 32 58 41 59 183 132 138 145 174 183 184 188 142 121 113 144 136 96 166 132 108 160 46 74 298 59 147 155 151 154 159 162 161 164 167 163 161 163 165 165 163 161 163 165 164 161 159 158 156 154 151 149 147 145 141 135 129 123 118 114 112 110 109 110 112 116 119 118 114 110 108 110 113 111 107 107 104 105 110 108 106 107 105 104 102 101 103 106 105 100 99 103
49 29 102 81 78 61 44 184 98 123 181 179 177 182 179 186 177 129 123 137 145 120 122 144 88 107 135 91 188 291 136 147 152 151 153 159 162 164 167 169 167 163 165 167 166 165 163 165 167 166 164 162 161 160 158 156 154 153 151 147 142 136 129 124 120 116 113 111 111 113 116 121 124 124 117 114 118 117 114 114 115 111 114 116 112 108 111 113 110 105 103 104 107 108 105 103 105
38 353 92 80 64 109 184 187 162 146 192 207 211 198 185 175 129 100 110 128 139 112 139 70 88 123 101 117 248 256 164 151 153 154 153 155 160 168 170 171 173 169 168 169 170 170 167 167 169 168 167 165 165 163 162 162 159 159 157 152 149 145 139 133 128 124 120 115 113 113 117 121 126 127 119 118 120 117 116 118 115 113 118 119 115 110 113 119 114 109 107 107 109 112 113 110 109
87 337 68 90 133 171 187 163 169 167 223 175 183 227 189 137 115 127 131 137 166 116 171 169 140 140 84 94 274 208 171 160 159 157 156 156 156 167 173 174 175 174 173 173 173 173 171 170 171 170 169 168 167 165 166 166 165 165 163 160 157 153 147 142 137 132 127 121 118 116 119 122 127 131 125 122 121 121 121 119 116 114 118 121 120 114 116 123 118 114 114 112 113 114 116 116 114
115 147 87 107 182 143 144 151 179 126 215 204 188 207 151 134 153 169 148 135 151 122 215 210 143 113 91 215 288 203 189 172 162 160 163 163 159 165 175 178 175 177 178 177 177 176 174 173 173 173 172 171 169 168 170 170 171 171 169 167 162 159 154 150 145 139 134 130 126 122 122 124 129 131 128 126 126 130 127 122 120 117 117 123 125 115 119 127 122 121 121 118 117 117 117 117 115
133 151 106 127 82 112 143 137 187 137 212 237 218 182 148 149 171 164 133 125 185 162 178 202 138 115 104 164 286 232 204 182 166 165 169 169 167 165 177 181 177 179 181 182 181 179 178 177 177 177 176 176 173 171 174 175 175 175 174 172 167 165 161 156 152 146 144 139 133 129 126 126 128 127 128 129 131 135 132 127 126 123 120 122 122 115 122 129 127 128 127 124 122 120 119 117 116
146 128 90 106 64 106 169 161 166 151 197 220 200 158 107 71 142 145 148 143 211 220 137 102 125 141 168 163 212 211 194 184 171 169 171 172 171 166 179 183 180 181 182 184 185 184 183 182 181 181 183 181 177 175 175 176 179 179 177 177 172 169 167 163 159 154 151 147 141 136 132 129 127 127 129 131 134 137 136 133 130 129 125 123 120 120 129 132 132 134 131 130 127 125 123 119 117
121 106 75 83 118 156 185 167 140 135 207 210 200 128 92 349 134 140 207 149 157 295 47 53 44 336 171 172 217 188 181 178 171 173 172 170 170 167 178 182 182 182 183 186 188 189 187 185 184 184 186 184 181 178 176 177 180 183 181 182 178 174 172 168 164 160 157 154 148 143 139 134 130 131 132 132 136 139 140 137 135 132 129 127 123 127 134 134 136 138 136 135 132 129 127 123 120
61 81 73 58 150 184 192 173 169 167 207 220 238 151 116 310 335 131 251 97 112 47 43 23 347 11 171 235 206 167 169 171 170 175 171 166 164 162 172 179 182 182 184 189 191 191 190 188 187 186 187 185 184 180 179 178 180 184 184 186 184 179 176 172 170 166 163 160 156 152 147 142 136 136 137 135 136 141 144 142 139 135 132 130 128 134 137 136 140 141 139 138 134 132 130 126 124
56 87 105 150 189 190 184 188 203 174 164 188 205 165 134 155 216 190 57 57 75 62 34 3 4 16 14 60 148 154 161 166 170 173 170 166 162 161 168 176 180 182 185 190 193 194 192 191 190 190 188 187 186 184 183 180 180 184 186 189 187 184 180 177 175 172 169 166 164 161 157 152 143 140 142 140 138 142 147 147 144 139 136 135 134 138 141 141 143 145 144 141 137 135 133 130 127
91 112 98 215 210 192 196 201 212 189 159 166 181 169 156 172 170 136 127 119 101 89 17 357 20 16 40 110 140 151 159 165 172 173 173 172 170 168 169 175 179 183 187 190 193 195 195 195 194 193 192 189 188 187 187 184 184 185 187 190 189 188 185 183 180 178 177 174 171 169 166 161 151 144 144 143 142 144 149 150 148 143 141 140 142 146 148 147 147 148 147 145 141 138 136 133 131
153 113 96 233 215 199 215 193 229 251 174 150 165 170 166 197 168 143 151 155 150 155 186 89 205 230 140 139 146 152 161 168 175 177 179 181 179 177 175 177 182 186 190 191 192 194 198 198 197 197 196 193 191 190 190 188 188 188 190 192 192 191 189 188 185 183 183 181 177 175 174 169 159 151 147 149 149 150 152 154 152 148 146 148 152 154 154 151 150 151 151 149 146 142 139 136 136
137 104 164 221 184 151 261 230 291 287 162 152 150 132 166 228 175 147 140 138 241 233 209 192 195 188 168 175 166 161 166 171 179 183 185 188 188 187 184 184 187 190 191 191 192 195 199 200 199 199 199 197 194 193 193 192 192 191 193 195 195 194 192 190 189 189 188 186 183 181 181 177 170 161 155 155 156 158 158 158 158 154 154 156 159 159 155 153 153 154 155 153 150 145 142 140 140
79 27 202 210 150 142 279 297 341 52 100 122 132 144 184 178 141 146 147 160 225 226 213 206 190 173 171 176 175 171 172 176 182 188 191 193 195 196 194 191 191 191 191 192 195 197 199 200 200 200 200 201 199 197 196 194 195 195 196 197 197 196 195 192 192 193 192 191 189 188 186 183 179 172 163 161 162 166 164 162 162 161 161 161 163 162 158 157 156 157 158 155 151 149 145 143 144
97 271 274 283 191 146 292 323 345 96 106 123 152 172 144 119 177 165 162 194 226 221 207 208 190 171 171 167 169 174 180 184 188 193 194 196 198 200 199 197 195 194 194 196 197 199 200 201 203 204 202 202 202 202 200 198 198 199 199 199 199 198 197 196 195 196 195 195 195 194 193 189 187 182 175 169 168 171 169 167 165 166 167 165 167 166 161 160 158 159 159 155 150 149 147 146 145
96 181 291 359 121 105 185 299 33 93 113 156 163 131 137 149 176 131 192 229 243 259 240 187 168 160 161 160 174 183 185 190 195 198 198 199 201 202 202 200 200 198 197 199 200 201 202 202 204 206 207 206 205 204 203 202 201 202 202 202 203 202 201 201 199 198 196 198 199 200 199 197 195 190 184 177 173 174 174 171 169 171 172 169 170 171 166 162 160 161 160 156 152 150 148 147 146
85 161 220 85 47 22 330 70 58 75 92 89 100 110 208 183 160 133 237 243 245 262 33 100 138 144 160 171 184 189 190 197 202 204 204 207 207 206 206 204 203 202 203 203 203 204 204 203 203 206 210 209 207 206 206 205 204 205 205 206 206 206 205 206 204 201 198 200 202 203 203 201 201 198 192 184 176 175 176 175 174 176 176 173 172 173 171 167 163 163 162 159 156 152 150 148 146
170 146 162 113 42 317 19 60 52 68 59 58 107 50 301 251 281 272 245 237 219 151 73 102 133 145 174 181 187 190 194 203 206 207 209 212 212 211 213 209 207 207 209 208 207 208 207 206 207 207 209 210 209 208 207 208 207 207 208 209 209 209 209 210 209 205 201 202 204 204 206 206 206 204 198 191 182 177 179 179 178 179 178 176 175 175 175 172 167 165 165 163 159 155 151 150 148
150 115 105 82 52 319 12 83 40 54 29 59 134 203 308 325 335 261 262 250 148 125 120 152 148 164 186 187 194 194 197 206 207 207 208 212 212 214 215 211 211 212 211 211 210 211 210 209 210 210 210 212 212 210 208 208 209 210 211 212 211 211 212 211 212 211 206 204 207 207 206 207 209 209 205 198 189 181 181 182 183 184 182 179 180 179 177 177 172 168 169 166 162 158 153 152 152
124 116 83 15 3 349 27 100 11 23 67 94 125 131 310 352 334 231 259 346 149 152 160 184 179 186 193 194 199 197 205 213 209 205 205 208 210 212 213 213 213 213 212 213 214 213 211 211 212 213 213 213 212 212 209 207 208 210 212 213 213 214 214 212 213 214 212 208 209 210 209 208 208 209 209 204 195 187 183 184 188 190 187 184 184 184 179 179 175 170 170 168 165 160 155 153 153
121 106 88 350 3 6 302 97 297 52 104 256 115 52 298 260 234 237 253 65 159 164 171 196 206 207 203 202 205 203 214 217 209 209 212 212 212 211 212 215 214 213 214 216 216 215 214 214 214 215 215 213 211 212 211 209 209 210 211 212 214 215 213 215 215 215 215 213 211 212 213 212 210 210 211 208 202 194 188 186 190 194 194 190 189 189 183 179 177 172 170 168 165 162 157 153 153
124 76 94 26 16 344 287 325 324 117 115 313 103 220 277 252 244 252 301 52 136 163 192 206 217 221 216 212 213 217 220 216 210 214 218 217 216 214 215 218 216 216 217 215 216 217 217 215 214 215 213 211 210 211 213 212 213 214 212 212 214 214 212 214 218 216 215 215 213 214 215 215 212 211 212 210 205 199 193 188 190 195 198 197 195 194 189 182 178 174 171 169 166 164 160 157 157
105 79 70 65 103 267 296 315 131 136 157 30 92 184 266 272 270 278 300 236 153 180 210 211 225 233 231 226 222 227 225 218 218 220 221 221 220 219 219 220 218 218 219 216 217 218 218 217 215 215 212 211 210 211 214 214 216 216 215 215 214 215 215 214 216 217 216 215 214 214 216 218 215 212 212 211 207 203 198 192 192 195 198 200 198 196 192 184 180 177 173 170 165 164 162 159 160
53 104 321 347 150 252 306 287 156 151 273 35 88 203 267 278 280 286 299 171 159 197 221 223 232 234 235 235 228 232 235 228 228 228 226 225 224 222 223 223 221 220 220 220 219 217 217 218 216 215 213 211 210 212 214 216 217 216 217 218 217 218 218 217 215 215 217 217 219 217 215 216 217 215 212 211 208 204 201 198 197 197 199 200 198 196 193 186 181 176 175 174 168 163 161 159 158
2 98 192 259 148 247 309 292 217 165 196 12 77 214 264 279 278 290 326 74 141 215 244 247 242 240 237 233 231 230 239 239 236 235 232 229 227 226 225 225 225 224 224 222 220 217 216 216 216 215 215 213 212 213 214 216 216 216 218 219 219 219 219 220 218 217 217 217 220 221 217 215 217 217 213 211 210 206 203 201 199 199 199 200 199 195 192 189 184 177 173 176 174 167 163 160 157
287 53 153 221 166 174 268 278 293 74 126 291 51 218 251 265 280 293 316 34 121 233 249 251 246 248 245 239 241 235 234 240 235 232 231 229 228 228 227 227 227 226 226 223 221 220 218 216 215 215 215 214 214 214 214 216 216 217 219 219 220 221 222 222 221 220 220 220 220 221 221 220 221 219 215 212 211 209 205 202 200 200 199 199 197 193 190 187 184 181 175 175 176 171 166 163 159
187 178 156 206 187 189 235 245 254 64 90 228 141 237 258 268 280 284 290 297 225 245 246 250 252 250 251 249 248 242 236 240 238 232 230 229 228 228 227 227 227 226 225 223 222 220 219 217 216 215 214 214 215 216 217 217 218 218 219 219 221 223 223 222 222 222 222 223 222 221 222 221 222 220 216 213 211 211 208 204 202 200 200 200 196 192 189 185 181 181 178 174 173 171 169 166 160
166 172 149 156 165 217 242 253 267 136 116 236 217 224 258 271 279 279 279 253 214 253 263 259 258 251 251 251 250 248 239 241 243 239 234 230 228 227 226 226 226 226 224 222 220 219 218 217 216 215 215 216 216 217 218 217 216 217 218 218 219 220 220 219 220 222 223 225 224 223 222 221 222 222 220 218 214 213 211 209 206 202 202 200 196 194 191 190 187 183 179 174 169 166 165 164 161
136 125 110 142 152 210 255 275 307 84 136 257 243 241 262 266 270 270 274 270 225 251 259 257 255 249 246 243 247 247 238 245 252 249 243 236 231 228 225 224 223 222 221 220 218 217 218 218 216 215 216 217 217 217 217 216 214 213 214 216 217 218 218 218 219 221 223 224 225 225 225 223 223 223 225 221 214 212 210 208 205 202 202 200 200 201 197 193 190 186 181 176 173 166 162 161 162
96 122 115 86 130 199 257 246 302 5 134 273 331 303 266 259 264 267 271 275 250 236 238 247 248 246 246 242 246 249 247 256 260 255 248 240 233 227 224 222 219 218 218 217 217 218 217 217 217 218 218 217 218 218 217 216 215 213 213 215 218 219 220 222 224 224 224 224 225 226 226 226 223 222 223 218 211 209 208 204 202 202 202 201 201 201 196 191 188 187 181 175 175 170 165 164 165
82 108 120 99 148 207 299 297 311 12 105 274 346 332 274 259 255 260 257 252 249 236 227 239 246 248 248 240 243 249 255 259 255 253 251 243 232 223 220 219 219 219 218 216 216 216 215 216 218 219 220 219 219 219 218 217 216 215 216 218 220 222 224 227 228 230 229 226 225 225 224 223 222 222 223 218 212 211 209 204 203 203 201 200 199 197 193 190 187 186 183 178 174 171 168 169 171
87 104 126 172 235 156 280 302 315 4 58 281 334 312 280 275 268 264 256 250 262 260 243 242 241 242 245 244 244 241 243 249 250 250 251 245 227 214 215 217 218 217 215 214 213 213 214 216 219 219 220 221 220 218 218 218 217 216 219 222 224 225 228 230 231 233 231 226 225 223 221 219 219 220 223 221 214 212 210 208 207 205 203 201 200 197 194 192 191 188 185 182 178 171 169 172 175
39 128 137 168 196 165 174 278 322 3 16 27 6 323 290 307 325 284 277 298 286 272 270 261 245 242 252 264 258 239 234 237 239 245 247 232 209 207 213 216 215 212 212 215 214 214 216 217 220 220 220 221 220 219 218 217 217 217 218 220 223 225 228 230 231 231 228 224 222 221 219 217 217 218 222 224 217 210 209 210 210 207 205 202 201 200 196 193 193 191 189 188 185 179 175 175 177
331 205 168 164 159 153 142 35 49 38 353 339 26 360 290 309 319 277 291 319 290 295 328 281 262 252 249 259 262 253 248 240 233 246 246 222 214 212 214 214 210 210 213 216 217 217 218 220 221 220 220 220 220 219 218 217 218 218 218 218 218 219 223 226 227 229 227 224 222 221 220 219 219 220 222 225 224 217 210 209 209 207 205 204 202 201 197 193 194 194 192 192 191 188 181 177 181
196 219 162 144 124 116 119 85 69 86 258 297 53 102 267 300 282 257 279 295 287 297 300 275 269 265 242 240 260 264 259 250 243 255 243 219 217 212 211 211 209 212 215 215 215 216 218 221 221 220 220 220 220 220 220 219 220 221 222 223 222 222 223 226 229 231 231 230 228 226 225 223 223 223 225 226 227 224 217 211 210 208 208 208 205 200 198 196 197 197 196 195 193 191 185 181 185
209 209 130 127 114 118 131 108 96 201 243 321 18 119 237 290 257 253 291 304 295 292 281 272 266 264 259 243 242 246 250 245 232 238 233 221 215 208 208 211 212 214 214 212 213 216 218 221 222 222 222 222 223 223 223 223 223 224 225 226 228 228 229 232 233 234 235 235 234 232 230 228 226 226 227 229 228 226 222 216 213 210 210 211 208 205 202 201 200 198 197 196 194 193 194 191 188
237 189 129 130 123 128 124 99 91 12 10 318 314 129 195 273 272 293 327 295 287 279 270 271 269 270 279 274 250 248 250 236 219 224 227 220 214 211 212 213 214 214 213 213 215 218 220 221 223 224 224 225 225 225 225 226 227 228 228 228 229 231 233 235 237 238 237 236 236 235 233 231 230 228 228 228 227 227 225 220 216 213 211 210 209 209 207 203 202 201 199 198 197 198 200 197 192
189 142 102 75 75 82 76 91 103 42 16 258 243 186 194 267 284 308 340 243 259 265 267 267 275 283 277 257 252 262 276 258 235 235 235 226 218 216 213 213 216 215 215 216 217 219 221 222 223 224 226 226 226 226 226 227 227 228 229 229 230 232 233 234 236 237 237 236 236 236 235 233 232 230 229 228 228 229 228 222 219 216 213 211 209 208 206 204 203 204 203 202 200 201 202 200 199
131 103 67 46 32 38 45 57 81 66 293 256 235 202 185 275 280 260 218 214 223 247 277 288 305 306 279 255 255 273 304 261 224 236 245 235 223 216 212 213 216 215 215 216 217 220 221 222 224 225 227 227 226 227 226 227 227 228 229 230 232 233 233 232 232 233 233 232 233 234 235 235 235 233 231 229 228 230 229 224 221 220 218 216 215 212 210 210 208 206 204 203 202 202 203 203 203
101 85 76 60 351 12 23 2 43 122 255 265 267 238 156 231 259 255 252 255 239 232 258 287 310 306 286 276 268 262 264 218 198 181 92 153 194 204 208 211 215 214 213 215 218 220 222 223 225 225 226 226 226 226 226 226 227 228 230 232 233 235 234 233 232 232 231 230 231 233 235 236 236 235 232 229 226 227 228 225 223 222 220 219 217 216 214 213 211 207 204 203 203 203 204 204 204
78 92 95 87 338 7 354 318 37 223 248 272 304 300 207 234 245 255 265 265 247 219 222 256 286 288 276 274 269 261 273 272 233 177 154 175 189 204 209 209 211 212 213 216 219 221 222 224 225 225 226 226 226 226 226 227 227 229 231 232 234 235 236 235 235 235 234 233 233 233 233 234 234 233 231 229 227 224 224 225 223 221 220 219 218 217 216 214 212 208 205 204 204 204 206 206 206
129 138 128 128 129 113 264 273 279 263 263 291 321 305 261 278 262 241 246 253 249 229 236 251 256 255 256 264 273 274 272 269 252 225 217 219 213 212 216 214 210 213 216 219 221 222 223 224 224 227 229 228 227 227 227 228 229 231 232 233 234 235 236 236 236 237 236 236 236 235 235 235 234 234 232 229 227 223 222 224 224 222 220 219 219 219 218 217 213 210 208 206 207 207 208 208 208
173 155 133 144 155 158 206 221 217 249 283 297 305 287 207 221 279 253 243 265 288 288 282 278 265 258 268 281 283 272 259 253 248 238 232 236 231 221 222 221 216 217 221 223 224 223 222 225 226 228 230 230 229 228 229 230 231 233 233 234 235 235 236 237 237 238 238 238 238 237 238 239 238 237 236 232 228 223 221 222 223 223 222 221 222 221 218 217 214 211 209 208 209 209 208 210 210
230 130 106 159 184 148 142 190 178 182 307 295 255 238 214 207 278 278 261 274 290 293 296 310 297 278 292 296 272 240 236 242 237 235 237 241 238 230 227 225 222 223 226 227 226 224 224 227 228 231 233 233 232 232 232 234 234 235 235 235 235 235 236 236 237 237 238 239 240 239 241 242 240 239 239 236 232 227 224 223 223 224 224 223 223 222 219 216 214 212 210 209 209 209 209 211 212
175 136 175 216 180 120 113 239 64 82 264 272 227 251 284 329 289 283 291 283 283 294 305 314 295 278 288 288 270 223 213 228 226 226 230 233 234 233 228 224 224 226 228 229 229 227 229 231 231 233 234 234 235 236 236 237 237 237 238 237 237 236 235 235 236 236 237 239 240 240 241 241 240 240 241 239 236 233 230 227 226 226 227 226 225 222 220 217 214 212 211 210 211 211 211 213 214
128 172 211 196 114 85 106 199 351 41 254 273 271 250 279 316 272 308 359 302 259 270 285 296 299 303 300 282 281 278 243 235 227 224 232 238 236 233 228 226 227 228 230 232 233 234 234 235 235 236 236 236 237 238 239 239 238 239 239 239 238 238 238 237 236 237 238 238 238 237 237 237 238 240 240 238 237 235 232 230 227 227 226 225 225 222 219 217 215 213 213 214 214 212 212 214 215
126 181 183 119 120 186 108 156 203 144 243 276 294 279 262 217 228 276 353 225 222 247 276 298 298 291 277 271 282 298 289 275 258 232 230 239 237 233 228 226 228 229 232 234 235 237 237 236 237 238 239 241 242 243 242 241 240 241 241 241 241 241 241 240 239 238 237 237 236 235 234 234 236 240 241 239 238 236 233 230 227 225 225 224 224 223 220 217 216 215 214 214 214 213 213 215 215
59 93 117 99 137 171 163 158 168 166 203 256 304 315 264 221 205 191 209 222 209 229 265 275 264 259 258 266 278 286 283 278 274 255 241 238 236 236 231 227 229 230 232 235 236 237 236 236 237 237 239 241 242 243 243 243 242 242 243 243 243 242 242 242 242 240 238 236 234 232 233 233 233 238 242 242 241 238 234 230 227 225 225 224 223 223 221 218 216 216 215 215 215 214 215 215 215
141 159 172 182 108 109 159 159 126 140 162 197 274 291 264 245 197 176 197 218 207 209 229 241 252 263 267 263 262 269 270 265 266 265 265 259 249 246 241 236 235 234 236 238 237 237 236 236 236 237 239 241 242 243 242 244 244 244 244 244 244 244 243 243 243 242 241 238 234 231 232 234 232 234 240 243 242 240 237 234 230 227 226 226 224 223 222 219 217 217 217 216 215 214 214 215 215
165 183 195 187 160 126 156 237 253 131 159 176 185 272 268 237 186 186 194 212 221 216 220 241 259 264 268 268 262 262 264 263 263 258 260 263 258 257 254 247 240 237 237 238 238 238 236 235 236 237 239 242 243 243 243 244 245 246 246 247 247 246 246 245 243 242 242 240 237 233 232 233 233 232 236 241 243 242 241 238 234 231 228 227 226 224 223 221 218 218 217 217 217 215 213 213 214